Exeter, United Kingdom

8:15 AM BST on August 23, 2017 (GMT +0100)
Exeter

Weather History for EGTE - September, 2012

Change the Weather History Date:

Thursday, September 6, 2012

  Actual Average Record
Temperature  
Mean Temperature 54 °F -  
Max Temperature 68 °F 63 °F 78 °F (2004)
Min Temperature 40 °F 48 °F 35 °F (2015)
Degree Days  
Heating Degree Days 11    
Growing Degree Days 4 (Base 50)    
Moisture  
Dew Point 49 °F    
Average Humidity 80    
Maximum Humidity 100    
Minimum Humidity 42    
Precipitation  
Precipitation 0.00 in - - ()
Sea Level Pressure  
Sea Level Pressure 30.37 in    
Wind  
Wind Speed 3 mph ()    
Max Wind Speed 9 mph    
Max Gust Speed -    
Visibility 6.2 miles    
Events      
Averages and records for this station are not official NWS values.
T = Trace of Precipitation, MM = Missing Value Source: Averaged Metar Reports

Daily Weather History Graph

Daily Weather History Graph

Search for Another Location

Airport or City:

Trip Planner

Search our weather history database for the weather conditions in past years. The results will help you decide how hot, cold, wet, or windy it might be!

Date:

Astronomy

Sep. 06, 2012 Rise Set
Actual Time 6:35 AM BST 7:47 PM BST
Civil Twilight 6:01 AM BST 8:20 PM BST
Nautical Twilight 5:21 AM BST 9:01 PM BST
Astronomical Twilight 4:36 AM BST 9:45 PM BST
Moon 10:03 PM BST (9/6) 1:05 PM BST (9/6)
Length of Visible Light 14h 18m
Length of Day
13h 11m
Waning Gibbous, 69% of the Moon is Illuminated
Sep 6
Waning Gibbous
Sep 8
Last Quarter
Sep 16
New
Sep 22
First Quarter
Sep 30
Full

Hourly Weather History & Observations

Time (BST) Temp. Windchill Dew Point Humidity Pressure Visibility Wind Dir Wind Speed Gust Speed Precip Events Conditions
12:20 AM 48.2 °F - 48.2 °F 100% 30.42 in - North 3.5 mph - N/A   Clear
12:50 AM 47 °F - 47 °F 100%  in - East 2.3 mph - -  
12:50 AM 48.2 °F - 46.4 °F 93% 30.39 in - East 3.5 mph - N/A   Clear
1:20 AM 48.2 °F - 46.4 °F 93% 30.39 in - Variable 3.5 mph - N/A   Clear
1:50 AM 48.2 °F - 46.4 °F 93% 30.42 in - Variable 3.5 mph - N/A   Clear
3:50 AM 45 °F - 45 °F 99%  in - WNW 3.5 mph - -  
4:20 AM 46.4 °F - 44.6 °F 93% 30.39 in - Variable 2.3 mph - N/A   Clear
4:50 AM 44.6 °F - 44.6 °F 100% 30.39 in - Variable 2.3 mph - N/A   Clear
5:20 AM 46.4 °F - 44.6 °F 93% 30.39 in - Variable 2.3 mph - N/A   Clear
5:50 AM 44.6 °F - 44.6 °F 100% 30.39 in 6.2 mi Variable 2.3 mph - N/A   Partly Cloudy
6:20 AM 44.6 °F - 44.6 °F 100% 30.39 in 6.2 mi Variable 1.2 mph - N/A   Partly Cloudy
6:50 AM 41 °F - 41 °F 100%  in - ENE 2.3 mph - -  
6:50 AM 44.6 °F - 42.8 °F 93% 30.39 in 6.2 mi Variable 2.3 mph - N/A   Partly Cloudy
7:20 AM 42.8 °F 41.1 °F 42.8 °F 100% 30.42 in 6.2 mi NE 3.5 mph - N/A   Partly Cloudy
7:50 AM 46.4 °F - 44.6 °F 93% 30.42 in 6.2 mi Variable 1.2 mph - N/A   Partly Cloudy
8:20 AM 48.2 °F - 46.4 °F 93% 30.39 in 6.2 mi Calm Calm - N/A   Partly Cloudy
8:50 AM 50.0 °F - 48.2 °F 94% 30.42 in - Variable 2.3 mph - N/A   Clear
9:20 AM 51.8 °F - 50.0 °F 94% 30.42 in - Variable 1.2 mph - N/A   Clear
9:50 AM 56 °F - 53 °F 88%  in - East 1.2 mph - -  
9:50 AM 53.6 °F - 51.8 °F 94% 30.42 in - Variable 2.3 mph - N/A   Clear
10:20 AM 59.0 °F - 53.6 °F 82% 30.42 in 6.2 mi Variable 1.2 mph - N/A   Partly Cloudy
10:50 AM 60.8 °F - 55.4 °F 82% 30.42 in 6.2 mi Variable 2.3 mph - N/A   Partly Cloudy
11:20 AM 62.6 °F - 53.6 °F 72% 30.39 in 6.2 mi SSW 8.1 mph - N/A   Partly Cloudy
11:50 AM 62.6 °F - 51.8 °F 68% 30.39 in 6.2 mi SSW 9.2 mph - N/A   Partly Cloudy
12:20 PM 64.4 °F - 51.8 °F 64% 30.39 in 6.2 mi SSW 9.2 mph - N/A   Partly Cloudy
12:50 PM 66 °F - 50 °F 47%  in - SSW 6.9 mph - -  
12:50 PM 64.4 °F - 51.8 °F 64% 30.39 in 6.2 mi South 8.1 mph - N/A   Partly Cloudy
1:20 PM 64.4 °F - 50.0 °F 59% 30.39 in 6.2 mi SSW 8.1 mph - N/A   Partly Cloudy
1:50 PM 64.4 °F - 50.0 °F 59% 30.39 in 6.2 mi South 6.9 mph - N/A   Partly Cloudy
2:20 PM 66.2 °F - 50.0 °F 56% 30.36 in - South 5.8 mph - N/A   Clear
2:50 PM 66.2 °F - 50.0 °F 56% 30.36 in - South 5.8 mph - N/A   Clear
3:20 PM 66.2 °F - 50.0 °F 56% 30.36 in - South 4.6 mph - N/A   Clear
3:50 PM 67 °F - 49 °F 42%  in - SSW 4.6 mph - -  
3:50 PM 68.0 °F - 50.0 °F 52% 30.36 in - Variable 5.8 mph - N/A   Clear
4:20 PM 68.0 °F - 51.8 °F 56% 30.33 in - SSW 4.6 mph - N/A   Clear
4:50 PM 68.0 °F - 53.6 °F 60% 30.33 in - South 8.1 mph - N/A   Clear
5:20 PM 66.2 °F - 53.6 °F 64% 30.33 in - SSW 8.1 mph - N/A   Clear
5:50 PM 66.2 °F - 51.8 °F 60% 30.33 in - SSW 8.1 mph - N/A   Clear
6:20 PM 64.4 °F - 51.8 °F 64% 30.30 in - South 9.2 mph - N/A   Clear
6:50 PM 61 °F - 51 °F 61%  in - South 5.8 mph - -  
6:50 PM 62.6 °F - 51.8 °F 68% 30.30 in - South 6.9 mph - N/A   Clear
7:20 PM 60.8 °F - 51.8 °F 72% 30.30 in - South 4.6 mph - N/A   Clear
7:50 PM 59.0 °F - 51.8 °F 77% 30.33 in - South 4.6 mph - N/A   Clear
8:20 PM 57.2 °F - 51.8 °F 82% 30.33 in - SSE 3.5 mph - N/A   Clear
8:50 PM 55.4 °F - 51.8 °F 88% 30.33 in - North 2.3 mph - N/A   Clear
9:20 PM 55.4 °F - 51.8 °F 88% 30.33 in - Variable 1.2 mph - N/A   Clear
9:50 PM 50 °F - 50 °F 100%  in - ENE 2.3 mph - -  
9:50 PM 53.6 °F - 50.0 °F 88% 30.33 in - Variable 2.3 mph - N/A   Clear
10:20 PM 51.8 °F - 48.2 °F 88% 30.33 in - Variable 2.3 mph - N/A   Clear
10:50 PM 50.0 °F - 48.2 °F 94% 30.33 in - North 3.5 mph - N/A   Clear
11:20 PM 50.0 °F - 48.2 °F 94% 30.33 in - NNE 2.3 mph - N/A   Clear
11:50 PM 50.0 °F - 48.2 °F 94% 30.33 in - ENE 2.3 mph - N/A   Clear